Regional Weather Roundup
Issued by NWS Green Bay, WI

Home | Current Version | Previous Version | Text Only | Print | Product List | Glossary On
Versions: 1 2 3 4 5 6 7 8 9 10 11 12 13 14 15 16 17 18 19 20 21 22 23 24 25 26 27 28 29 30 31 32 33 34 35 36 37 38 39 40 41 42 43 44 45 46 47 48 49 50
072
ASUS43 KGRB 240511
RWRGRB

NORTH-CENTRAL AND NORTHEAST WISCONSIN REGIONAL WEATHER ROUNDUP
NATIONAL WEATHER SERVICE GREEN BAY WI
1200 AM CDT MON APR 24 2017

WIZ005-009-010>012-018-019-240600-
NORTH CENTRAL WISCONSIN

CITY           SKY/WX    TMP DP  RH WIND       PRES   REMARKS
IRONWOOD       MOCLDY    33  25  72 E10       30.05F
MANITOWISH WTR PTCLDY    32  28  84 E8        30.04F
ARBOR VITAE    PTCLDY    37  29  74 SE12      30.04S
EAGLE RIVER    PTCLDY    32  23  70 E7        30.06F
LAND O LAKES   PTCLDY    32  25  74 SE8       30.08F
RHINELANDER    PTCLDY    36  29  75 E10       30.06F
PHILLIPS       CLOUDY    37  32  82 E7        30.01F
ANTIGO         CLEAR     33  25  74 E10       30.08S
TOMAHAWK       CLEAR     37  31  79 SE8       30.06R
MERRILL        CLEAR     37  30  75 SE15G21   30.07S
$$

WIZ013-073-240600-
NORTHEAST WISCONSIN

CITY           SKY/WX    TMP DP  RH WIND       PRES   REMARKS
IRON MOUNTAIN  PTCLDY    32  20  61 N5        30.11F
MARINETTE      CLEAR     35  25  66 E12       30.14F
OCONTO         CLEAR     37  26  67 NE8       30.12F
$$

WIZ017-030-035>037-045-240600-
CENTRAL WISCONSIN

CITY           SKY/WX    TMP DP  RH WIND       PRES   REMARKS
MEDFORD        CLEAR     39  33  79 E7        30.01S
WAUSAU         CLEAR     37  30  75 E10       30.05F
MOSINEE        CLEAR     36  32  87 E13       30.06F
MARSHFIELD     CLEAR     40  34  79 E17       30.02R
WISC RAPIDS    CLEAR     41  35  79 SE16G24   30.05S
STEVENS POINT  CLEAR     36  33  88 E12       30.06S
WAUPACA        CLEAR     39  32  73 E5        30.09F
SHAWANO        CLEAR     39  30  71 E10G16    30.12S
CLINTONVILLE   CLEAR     37  27  65 E9        30.11S
WAUTOMA        CLEAR     39  32  76 E10       30.08S
$$

WIZ038-039-048-051-240600-
FOX VALLEY

CITY           SKY/WX    TMP DP  RH WIND       PRES   REMARKS
NWS GREEN BAY  CLEAR     39  29  67 NE9       30.11S
APPLETON       CLEAR     37  27  65 E12       30.08S
OSHKOSH        CLEAR     40  30  67 E12       30.08F
FOND DU LAC    CLEAR     38  28  67 E6        30.08F
$$

WIZ022-050-052-240600-
EAST CENTRAL WISCONSIN

CITY           SKY/WX    TMP DP  RH WIND       PRES   REMARKS
EPHRAIM        FAIR      34  24  66 NE7       30.12F
WASHINGTON ISL FAIR      33  22  65 NE9       30.14F
STURGEON BAY   PTCLDY    37  27  67 NE13      30.13S
MANITOWOC      PTCLDY    38  30  73 NE7       30.11S
SHEBOYGAN      CLEAR     37  32  82 NE10      30.08F
$$

LMZ563-521-522-541>543-240600-
LAKESHORE

STATION/POSITION TIME  TEMP    WIND        PRES    VSBY  WAVE
                       AIR SEA DIR/SP/G                  HT/PER
                 (UTC) (F)     (DEG/KT/KT) (MB)    (MI)  (FT/S)
SHEBOYGAN LKSHOR 0500   39      10/ 17/ 19 1019.0F
KEWAUNEE LKSHORE 0448   39      50/ 13/ 19 1019.2F
NORTHPORT PIER   0440   36      30/  7/ 11 1020.7F
N MID LAKE BUOY  0450   35 37   50/ 16/ 17 1022.1S         2/ 4
CHAMBERS ISLAND  0440   36      20/ 16/ 19 1020.3S
MENOMINEE LKSHOR 0448   37      30/ 18/ 21 1019.6F
$$




USA.gov is the U.S. government's official web portal to all federal, state and local government web resources and services.